Regional Weather Roundup
Issued by NWS Cleveland, OH

Home | Current Version | Previous Version | Text Only | Print | Product List | Glossary Off
Versions: 1 2 3 4 5 6 7 8 9 10 11 12 13 14 15 16 17 18 19 20 21 22 23 24 25 26 27 28 29 30 31 32 33 34 35 36 37 38 39 40 41 42 43 44 45 46 47 48 49 50

545
ASUS41 KCLE 202012
RWRCLE
OHIO REGIONAL WEATHER ROUNDUP
NATIONAL WEATHER SERVICE WILMINGTON, OH
400 PM EDT WED SEP 20 2017

NOTE: "FAIR" INDICATES FEW OR NO CLOUDS BELOW 12,000 FEET WITH NO
SIGNIFICANT WEATHER AND/OR OBSTRUCTIONS TO VISIBILITY.

OHZ001>008-015>018-024>027-034-035-043-044-202100-
   NORTHWEST OHIO

CITY           SKY/WX    TMP DP  RH WIND       PRES   REMARKS
DEFIANCE       PTSUNNY   83  67  58 VRB5      29.98F
FINDLAY        PTSUNNY   84  63  49 W6        29.98S
TOLEDO EXPRESS FAIR      83  67  58 W8        29.98S
TOLEDO EXEC    FAIR      83  64  52 CALM      29.98F
LIMA           FAIR      84  65  52 W7        29.99F
$$

OHZ009>014-019>023-028>033-038-089-202100-
   NORTHEAST OHIO

CITY           SKY/WX    TMP DP  RH WIND       PRES   REMARKS
CLE-HOPKINS    PTSUNNY   85  66  53 N13       30.01S
CLE-LAKEFRONT  PTSUNNY   77  68  73 NE7       29.99S
CUY CO. ARPT   PTSUNNY   82  64  54 N10       30.01S
LORAIN-ELYRIA  FAIR      83  60  45 CALM      30.00S
ASHTABULA      FAIR      81  64  56 NW5       30.01F
AKRON-CANTON   PTSUNNY   85  61  44 W6        30.01S
WOOSTER        FAIR      82  63  52 VRB5      30.01F
MANSFIELD      FAIR      80  65  59 SW5       30.02S
YOUNGSTOWN     PTSUNNY   85  62  46 VRB3      30.00F
$$

OHZ042-051>053-060>062-070>072-077>081-202100-
  SOUTHWEST OHIO

CITY           SKY/WX    TMP DP  RH WIND       PRES   REMARKS
CINC-COVINGTON PTSUNNY   85  70  60 VRB5      30.01F
CINC-LUNKEN    FAIR      83  69  62 SE5       30.00S
HAMILTON       FAIR      86  69  56 W8        30.00F HX  90
DAYTON         PTSUNNY   83  66  56 S6        30.01F
WRIGHT-PAT AFB PTSUNNY   84  67  55 S7        30.00S
DAYTON GENERAL FAIR      83  66  56 SW8       30.00F
WILMINGTON     FAIR      83  67  58 W6        30.01S
$$

OHZ036-037-039>041-045>050-054>059-063>069-073>076-082>088-202100-
  CENTRAL AND SOUTHEAST OHIO

CITY           SKY/WX    TMP DP  RH WIND       PRES   REMARKS
COLUMBUS       PTSUNNY   83  66  56 W6        29.99F
OSU AIRPORT    LGT RAIN  75  71  87 NW6       30.00S
BOLTON FIELD   PTSUNNY   81  66  61 W5        30.02S THUNDER
RICKENBACK AFB PTSUNNY   82  66  57 W6        30.00S
NEWARK         PTSUNNY   83  65  54 VRB3      29.99F
MARION         CLOUDY    83  63  50 SW5       30.00S
LANCASTER      FAIR      81  66  60 W5        30.00F
ZANESVILLE     FAIR      81  67  62 CALM      30.01F
NEW PHILLY     FAIR      82  65  56 CALM      30.01F
$$




USA.gov is the U.S. government's official web portal to all federal, state and local government web resources and services.